Weather Roundup
Issued by NWS Chicago, IL

Home | Current Version | Previous Version | Text Only | Print | Product List | Glossary On
Versions: 1 2 3 4 5 6 7 8 9 10 11 12 13 14 15 16 17 18 19 20 21 22 23 24 25 26 27 28 29 30 31 32 33 34 35 36 37 38 39 40 41 42 43 44 45 46 47 48 49 50
325
NZUS59 KLOT 261612
HRRLOT

CHICAGO AREA WEATHER ROUNDUP
NATIONAL WEATHER SERVICE CHICAGO/ROMEOVILLE IL
1000 AM CST SUN FEB 26 2017

NOTE: "FAIR" INDICATES FEW OR NO CLOUDS BELOW 12,000 FEET WITH NO
SIGNIFICANT WEATHER AND/OR OBSTRUCTIONS TO VISIBILITY.

* THESE STATIONS ARE NOT UNDER NWS QUALITY CONTROL. THEY ALSO MAY NOT
  REPORT WEATHER SUCH AS PRECIPITATION OR FOG.

ILZ005-006-012>014-019>023-261700-
NORTHEAST ILLINOIS

CITY           SKY/WX    TMP DP  RH WIND       PRES   REMARKS
OHARE          PTSUNNY   35  16  45 S22       29.97F WCI  23
MIDWAY         PTSUNNY   34  15  46 S18G26    30.00F WCI  23
AURORA         MOSUNNY   38  19  46 S22G32    29.98F
LANSING*       CLOUDY    34  21  59 S21G29    30.04F WCI  23
JOLIET*        CLOUDY    37  20  49 S20G26    30.01F
WAUKEGAN       CLOUDY    34  17  50 S24G31    29.92F WCI  21
DUPAGE AIRPORT CLOUDY    35  18  49 S21G31    29.96F WCI  24
WHEELING       CLOUDY    34  16  47 S18G25    29.97F WCI  23
KANKAKEE*      MOSUNNY   38  19  46 S22G29    30.06F
MORRIS*        PTSUNNY   37  18  47 S25G33    30.00S
LEWIS AIRPORT* CLOUDY    34  23  62 S20G25    30.00F WCI  23
NORTHERLY ISL    N/A     34  14  44 S15         N/A  WCI  24
$$

WIZ051-052-058>065-066-070>072-261700-
SOUTHEAST WISCONSIN

CITY           SKY/WX    TMP DP  RH WIND       PRES   REMARKS
MILWAUKEE      CLOUDY    35  19  52 SW16G30   29.89F WCI  25
KENOSHA*       CLOUDY    35  18  49 SW22      29.91F WCI  23
RACINE*        CLOUDY    35  18  49 SW20G30   29.92F WCI  24
WAUKESHA       MOSUNNY   30  18  59 SW15G29   29.89F WCI  19
WEST BEND      CLOUDY    32  23  69 SW13      29.84F WCI  22
$$

INZ001>003-010>013-019-020-261700-
NORTHWEST INDIANA

CITY           SKY/WX    TMP DP  RH WIND       PRES   REMARKS
GARY*          PTSUNNY   36  14  41 S23       30.04F
MICHIGAN CITY* NOT AVBL
RENSSELAER*    NOT AVBL
VALPARAISO     PTSUNNY   35  19  52 S18G26    30.06F WCI  24
$$

LMZ740>746-261700-
SOUTHERN LAKE MICHIGAN

STATION/POSITION TIME  SKY/WX   TEMP WIND        PRES    VSBY
                                AIR  DIR/SP/G
                 (UTC)          (F)  (DEG/KT/KT) (MB)    (MI)
HARRISON CRIB    1540            34  200/ 27/ 35   N/A
BURNHAM HARBOR   1600            35  200/ 15/ 21   N/A
CALUMET HARBOR   1548            34  180/ 15/ 25 1015.9F
BURNS HARBOR     1515            31  190/ 17     1017.9S
MICHIGAN CITY    1540            32  160/ 17/ 20   N/A
$$

ABBREVIATIONS USED IN REMARKS
   TC - TEMPERATURE IN CELSIUS
  WCI - WIND CHILL INDEX
   HX - HEAT INDEX
  VSB - VISIBILITY
$$




USA.gov is the U.S. government's official web portal to all federal, state and local government web resources and services.